Weather History for Ushuaia, Argentina

Change the Weather History Date:

Wednesday, November 21, 2012

  Actual Average Record
Temperature  
Mean Temperature 40 °F -  
Max Temperature 48 °F 55 °F 60 °F (2008)
Min Temperature 33 °F 40 °F 33 °F (2012)
Degree Days  
Heating Degree Days 24    
Moisture  
Dew Point 34 °F    
Average Humidity 84    
Maximum Humidity 100    
Minimum Humidity 54    
Precipitation  
Precipitation 0.01 in 0.05 in - ()
Sea Level Pressure  
Sea Level Pressure 29.08 in    
Wind  
Wind Speed 19 mph ()    
Max Wind Speed 39 mph    
Max Gust Speed 59 mph    
Visibility 6.3 miles    
Events Rain , Snow    
Averages and records for this station are not official NWS values.
T = Trace of Precipitation, MM = Missing Value Source: Averaged Metar Reports

Daily Weather History Graph

Daily Weather History Graph

Search for Another Location

Airport:

Trip Planner

Search our weather history database for the weather conditions in past years. The results will help you decide how hot, cold, wet, or windy it might be!

Date:

Astronomy

Nov. 21, 2012 Rise Set
Actual Time 5:07 AM ART 9:32 PM ART
Civil Twilight 4:18 AM ART 10:21 PM ART
Nautical Twilight 3:01 AM ART 11:39 PM ART
Astronomical Twilight 1:51 AM ART 12:46 AM ART
Moon 2:09 PM ART (11/21) 2:20 AM ART (11/21)
Length of Visible Light 18h 03m
Length of Day
16h 25m
First Quarter, 60% of the Moon is Illuminated
Nov 21
First Quarter
Nov 28
Full
Dec 6
Last Quarter
Dec 13
New
Dec 20
First Quarter

Hourly Weather History & Observations

Time (ART) Temp. Windchill Dew Point Humidity Pressure Visibility Wind Dir Wind Speed Gust Speed Precip Events Conditions
1:00 AM 48.2 °F - 32.0 °F 54% 29.09 in 6.2 mi East 8.1 mph - N/A   Scattered Clouds
1:35 AM 48.2 °F - 32.0 °F 54% 29.06 in 6.2 mi SW 25.3 mph 41.4 mph N/A   Mostly Cloudy
2:00 AM 41.0 °F 29.7 °F 30.2 °F 65% 29.06 in 6.2 mi SW 31.1 mph 40.3 mph N/A   Light Drizzle
2:25 AM 41.0 °F 29.3 °F 30.2 °F 65% 29.06 in 6.2 mi SW 33.4 mph 48.3 mph N/A Rain Heavy Rain
3:00 AM 33 °F - 33 °F 97% 29.10 in 5 mi SW 23.0 mph - - Snow Heavy Snow
3:00 AM 33.8 °F 21.6 °F 32.0 °F 93% 29.09 in 5.0 mi SW 23.0 mph - N/A Rain Rain
4:00 AM 35.6 °F 29.9 °F 35.6 °F 100% 29.09 in 5.0 mi SW 6.9 mph - N/A Rain Heavy Rain
5:00 AM 33.8 °F 28.6 °F 32.0 °F 93% 29.03 in 5.0 mi SW 5.8 mph - N/A Rain Rain
6:00 AM 33.8 °F 28.6 °F 32.0 °F 93% 29.00 in 5.0 mi SW 5.8 mph - N/A Rain Rain
7:00 AM 35.6 °F 30.7 °F 33.8 °F 93% 29.00 in 6.2 mi WSW 5.8 mph - N/A   Overcast
8:00 AM 37.4 °F - 35.6 °F 93% 29.00 in 6.2 mi Calm Calm - N/A   Mostly Cloudy
9:00 AM 39 °F - 35 °F 80% 28.99 in 19 mi WSW 8.1 mph - -  
9:00 AM 39.2 °F 33.6 °F 35.6 °F 87% 28.97 in 6.2 mi WSW 8.1 mph - N/A   Mostly Cloudy
10:00 AM 39.2 °F 28.7 °F 35.6 °F 87% 28.97 in 6.2 mi SW 23.0 mph - N/A   Mostly Cloudy
11:00 AM 41.0 °F 30.2 °F 35.6 °F 81% 28.97 in 6.2 mi SW 27.6 mph 38.0 mph N/A   Overcast
11:27 AM 41.0 °F 30.2 °F 35.6 °F 81% 28.97 in 6.2 mi SW 27.6 mph 42.6 mph N/A Rain Rain
12:00 PM 41.0 °F 29.5 °F 33.8 °F 76% 29.00 in 6.2 mi SW 32.2 mph 42.6 mph N/A   Scattered Clouds
1:00 PM 37.4 °F 23.5 °F 35.6 °F 93% 29.03 in 6.2 mi SW 39.1 mph 52.9 mph N/A   Drizzle
2:00 PM 37.4 °F 24.4 °F 35.6 °F 93% 29.06 in 6.2 mi SW 33.4 mph 44.9 mph N/A   Scattered Clouds
3:00 PM 37.4 °F 23.5 °F 35.6 °F 93% 29.06 in 6.2 mi SW 39.1 mph 51.8 mph N/A   Scattered Clouds
4:00 PM 39.2 °F 26.0 °F 35.6 °F 87% 29.09 in 6.2 mi SW 39.1 mph 58.7 mph N/A   Scattered Clouds
5:00 PM 39.2 °F 27.0 °F 35.6 °F 87% 29.15 in 6.2 mi SW 32.2 mph 49.5 mph N/A   Partly Cloudy
6:00 PM 39.2 °F 27.2 °F 35.6 °F 87% 29.15 in 6.2 mi SW 31.1 mph 43.7 mph N/A   Scattered Clouds
7:00 PM 39.2 °F 27.6 °F 33.8 °F 81% 29.18 in 6.2 mi SW 28.8 mph - N/A   Scattered Clouds
8:00 PM 37.4 °F 25.4 °F 33.8 °F 87% 29.21 in 5.0 mi SW 27.6 mph - N/A   Mostly Cloudy
9:00 PM 35.6 °F 22.7 °F 32.0 °F 87% 29.24 in 5.0 mi SW 28.8 mph 40.3 mph N/A   Light Drizzle
10:00 PM 33.8 °F 24.3 °F 32.0 °F 93% 29.27 in 5.0 mi SW 13.8 mph - N/A   Light Drizzle
11:00 PM 35.6 °F 24.8 °F 28.4 °F 75% 29.27 in 6.2 mi SW 19.6 mph - N/A   Light Drizzle